Sauk Centre, MN

10:01 AM CDT on October 17, 2019 (GMT -0500)
Sauk Centre

Weather History for KD39 - August, 2019

Change the Weather History Date:

Saturday, August 31, 2019

  Actual Average (KGHW) Record (KGHW)
Temperature  
Mean Temperature 60 °F -  
Max Temperature 68 °F 77 °F 91 °F (1961)
Min Temperature 52 °F 54 °F 36 °F (1987)
Degree Days  
Heating Degree Days 5    
Growing Degree Days 10 (Base 50)    
Moisture  
Dew Point 53 °F    
Average Humidity 78    
Maximum Humidity 96    
Minimum Humidity 58    
Precipitation  
Precipitation 0.00 in - - ()
Sea Level Pressure  
Sea Level Pressure 30.23 in    
Wind  
Wind Speed 2 mph ()    
Max Wind Speed 10 mph    
Max Gust Speed -    
Visibility 9.9 miles    
Events      
Averages and records for this station are not official NWS values.
T = Trace of Precipitation, MM = Missing Value Source: Averaged Metar Reports

Daily Weather History Graph

Daily Weather History Graph

Search for Another Location

Airport or City:

Astronomy

Aug. 31, 2019 Rise Set
Actual Time 6:39 AM CDT 7:59 PM CDT
Civil Twilight 6:08 AM CDT 8:30 PM CDT
Nautical Twilight 5:31 AM CDT 9:07 PM CDT
Astronomical Twilight 4:51 AM CDT 9:47 PM CDT
Moon 7:58 AM CDT (8/31) 9:09 PM CDT (8/31)
Length of Visible Light 14h 22m
Length of Day
13h 20m
New Moon, 3% of the Moon is Illuminated
Aug 31
New Moon
Sep 5
First Quarter
Sep 13
Full
Sep 21
Last Quarter
Sep 28
New

Hourly Weather History & Observations

Time (CDT) Temp. Dew Point Humidity Pressure Visibility Wind Dir Wind Speed Gust Speed Precip Events Conditions
12:18 AM 55.0 °F 50.5 °F 85% 30.26 in 10.0 mi Calm Calm - N/A   Clear
12:35 AM 53.6 °F 51.8 °F 94% 30.27 in 10.0 mi Calm Calm - N/A   Clear
12:55 AM 53.6 °F 51.4 °F 92% 30.26 in 10.0 mi Calm Calm - N/A   Clear
12:56 AM 53.8 °F 51.4 °F 92% 30.26 in 10.0 mi Calm Calm - N/A   Clear
1:15 AM 54.5 °F 51.3 °F 89% 30.27 in 10.0 mi Calm Calm - N/A   Clear
1:16 AM 54.5 °F 51.3 °F 89% 30.27 in 10.0 mi Calm Calm - N/A   Clear
1:35 AM 53.6 °F 51.6 °F 93% 30.27 in 10.0 mi Calm Calm - N/A   Clear
1:39 AM 53.6 °F 51.8 °F 94% 30.27 in 10.0 mi Calm Calm - N/A   Clear
1:58 AM 53.2 °F 51.8 °F 95% 30.27 in 10.0 mi Calm Calm - N/A   Clear
2:15 AM 53.2 °F 51.4 °F 94% 30.27 in 10.0 mi ENE 3.5 mph - N/A   Clear
2:35 AM 54.5 °F 50.4 °F 86% 30.26 in 10.0 mi Calm Calm - N/A   Clear
2:36 AM 54.1 °F 50.4 °F 87% 30.26 in 10.0 mi Calm Calm - N/A   Clear
2:55 AM 54.3 °F 50.5 °F 87% 30.26 in 10.0 mi ESE 3.5 mph - N/A   Clear
3:19 AM 52.9 °F 51.1 °F 94% 30.26 in 10.0 mi Calm Calm - N/A   Clear
3:37 AM 53.8 °F 50.9 °F 90% 30.26 in 10.0 mi Calm Calm - N/A   Clear
3:55 AM 53.6 °F 51.3 °F 92% 30.26 in 10.0 mi Calm Calm - N/A   Clear
4:15 AM 53.6 °F 51.1 °F 91% 30.26 in 10.0 mi Calm Calm - N/A   Clear
4:16 AM 53.6 °F 51.1 °F 91% 30.26 in 10.0 mi Calm Calm - N/A   Clear
4:35 AM 53.6 °F 50.9 °F 91% 30.26 in 10.0 mi Calm Calm - N/A   Scattered Clouds
4:36 AM 53.6 °F 51.1 °F 91% 30.26 in 10.0 mi Calm Calm - N/A   Scattered Clouds
4:58 AM 54.3 °F 51.3 °F 89% 30.26 in 10.0 mi Calm Calm - N/A   Scattered Clouds
5:17 AM 54.1 °F 50.5 °F 88% 30.25 in 10.0 mi Calm Calm - N/A   Scattered Clouds
5:35 AM 54.5 °F 50.5 °F 86% 30.26 in 10.0 mi Calm Calm - N/A   Scattered Clouds
5:55 AM 53.6 °F 50.7 °F 90% 30.25 in 10.0 mi Calm Calm - N/A   Scattered Clouds
5:56 AM 53.6 °F 50.9 °F 91% 30.25 in 10.0 mi Calm Calm - N/A   Scattered Clouds
6:15 AM 54.0 °F 50.2 °F 87% 30.25 in 10.0 mi Calm Calm - N/A   Clear
6:16 AM 54.1 °F 50.2 °F 86% 30.25 in 10.0 mi Calm Calm - N/A   Clear
6:38 AM 54.5 °F 50.5 °F 86% 30.25 in 10.0 mi Calm Calm - N/A   Clear
6:57 AM 53.6 °F 50.9 °F 91% 30.25 in 10.0 mi East 3.5 mph - N/A   Scattered Clouds
7:16 AM 53.6 °F 51.1 °F 91% 30.26 in 10.0 mi Calm Calm - N/A   Scattered Clouds
7:36 AM 53.8 °F 52.0 °F 94% 30.26 in 10.0 mi Calm Calm - N/A   Clear
7:55 AM 54.9 °F 51.8 °F 89% 30.26 in 10.0 mi Calm Calm - N/A   Clear
7:56 AM 54.9 °F 51.8 °F 89% 30.26 in 10.0 mi Calm Calm - N/A   Clear
8:15 AM 55.6 °F 51.6 °F 87% 30.26 in 10.0 mi Calm Calm - N/A   Clear
8:19 AM 55.6 °F 52.0 °F 88% 30.26 in 10.0 mi East 3.5 mph - N/A   Clear
8:38 AM 56.3 °F 51.8 °F 85% 30.26 in 10.0 mi East 3.5 mph - N/A   Clear
8:55 AM 57.0 °F 51.4 °F 82% 30.26 in 10.0 mi ESE 4.6 mph - N/A   Clear
9:15 AM 57.9 °F 52.2 °F 81% 30.26 in 10.0 mi ESE 3.5 mph - N/A   Clear
9:16 AM 57.9 °F 52.3 °F 82% 30.26 in 10.0 mi ESE 3.5 mph - N/A   Clear
9:35 AM 59.0 °F 52.5 °F 79% 30.26 in 10.0 mi SE 4.6 mph - N/A   Clear
9:36 AM 59.0 °F 52.5 °F 79% 30.26 in 10.0 mi SE 4.6 mph - N/A   Clear
9:58 AM 60.6 °F 53.8 °F 78% 30.26 in 10.0 mi SSE 3.5 mph - N/A   Clear
10:17 AM 61.9 °F 53.6 °F 74% 30.26 in 10.0 mi SE 4.6 mph - N/A   Clear
10:36 AM 63.7 °F 53.4 °F 69% 30.26 in 10.0 mi SSE 4.6 mph - N/A   Clear
10:55 AM 64.4 °F 54.1 °F 69% 30.26 in 10.0 mi SSE 5.8 mph - N/A   Clear
10:56 AM 64.4 °F 54.1 °F 69% 30.26 in 10.0 mi SSE 5.8 mph - N/A   Clear
11:15 AM 64.8 °F 53.2 °F 66% 30.26 in 10.0 mi SSE 3.5 mph - N/A   Clear
11:19 AM 65.1 °F 54.0 °F 67% 30.26 in 10.0 mi SSE 6.9 mph - N/A   Scattered Clouds
11:38 AM 66.4 °F 53.8 °F 64% 30.26 in 10.0 mi South 4.6 mph - N/A   Scattered Clouds
11:56 AM 66.4 °F 53.6 °F 63% 30.26 in 10.0 mi South 6.9 mph - N/A   Scattered Clouds
12:16 PM 66.2 °F 52.3 °F 61% 30.26 in 10.0 mi SSE 5.8 mph - N/A   Scattered Clouds
12:35 PM 66.2 °F 53.6 °F 64% 30.26 in 10.0 mi South 8.1 mph - N/A   Overcast
12:36 PM 66.4 °F 53.6 °F 63% 30.26 in 10.0 mi South 6.9 mph - N/A   Overcast
12:55 PM 66.9 °F 54.1 °F 63% 30.25 in 10.0 mi South 5.8 mph - N/A   Mostly Cloudy
12:59 PM 67.1 °F 54.1 °F 63% 30.25 in 10.0 mi South 6.9 mph - N/A   Mostly Cloudy
1:17 PM 67.3 °F 53.1 °F 60% 30.25 in 10.0 mi South 9.2 mph - N/A   Scattered Clouds
1:36 PM 66.2 °F 54.0 °F 65% 30.25 in 10.0 mi SSW 6.9 mph - N/A   Scattered Clouds
1:56 PM 66.6 °F 54.3 °F 65% 30.25 in 10.0 mi South 9.2 mph - N/A   Scattered Clouds
2:15 PM 67.6 °F 55.8 °F 66% 30.24 in 10.0 mi SSE 5.8 mph - N/A   Scattered Clouds
2:19 PM 68.0 °F 55.6 °F 64% 30.24 in 10.0 mi South 6.9 mph - N/A   Scattered Clouds
2:37 PM 68.5 °F 53.2 °F 58% 30.24 in 10.0 mi SSW 9.2 mph - N/A   Scattered Clouds
2:55 PM 66.7 °F 53.1 °F 61% 30.23 in 10.0 mi South 10.4 mph - N/A   Scattered Clouds
3:15 PM 66.9 °F 53.2 °F 61% 30.23 in 10.0 mi South 4.6 mph - N/A   Mostly Cloudy
3:16 PM 67.1 °F 53.4 °F 61% 30.23 in 10.0 mi South 6.9 mph - N/A   Mostly Cloudy
3:35 PM 68.4 °F 53.8 °F 60% 30.22 in 10.0 mi SSE 6.9 mph - N/A   Mostly Cloudy
3:36 PM 68.4 °F 53.6 °F 59% 30.22 in 10.0 mi South 6.9 mph - N/A   Mostly Cloudy
3:58 PM 66.9 °F 52.7 °F 60% 30.21 in 10.0 mi South 6.9 mph - N/A   Mostly Cloudy
4:17 PM 66.7 °F 54.0 °F 63% 30.21 in 10.0 mi SSE 8.1 mph - N/A   Overcast
4:36 PM 66.7 °F 54.1 °F 64% 30.21 in 10.0 mi South 6.9 mph - N/A   Overcast
4:55 PM 67.1 °F 53.8 °F 62% 30.21 in 10.0 mi SSE 9.2 mph - N/A   Overcast
4:56 PM 67.1 °F 53.8 °F 62% 30.21 in 10.0 mi SSE 8.1 mph - N/A   Overcast
5:15 PM 66.6 °F 53.6 °F 63% 30.21 in 10.0 mi SE 8.1 mph - N/A   Overcast
5:19 PM 66.4 °F 53.8 °F 64% 30.21 in 10.0 mi SE 6.9 mph - N/A   Overcast
5:37 PM 66.4 °F 53.6 °F 63% 30.20 in 10.0 mi SE 8.1 mph - N/A   Overcast
5:56 PM 65.8 °F 53.6 °F 65% 30.20 in 10.0 mi SE 8.1 mph - N/A   Mostly Cloudy
6:15 PM 65.5 °F 52.9 °F 64% 30.19 in 10.0 mi SE 9.2 mph - N/A   Mostly Cloudy
6:16 PM 65.3 °F 52.9 °F 64% 30.19 in 10.0 mi SE 8.1 mph - N/A   Mostly Cloudy
6:35 PM 64.9 °F 53.4 °F 66% 30.19 in 10.0 mi SE 6.9 mph - N/A   Overcast
6:57 PM 64.4 °F 53.4 °F 67% 30.19 in 10.0 mi SE 5.8 mph - N/A   Overcast
7:15 PM 63.7 °F 54.0 °F 71% 30.19 in 10.0 mi ESE 4.6 mph - N/A   Overcast
7:35 PM 63.0 °F 53.8 °F 72% 30.19 in 7.0 mi SE 5.8 mph - N/A   Overcast
7:36 PM 62.8 °F 53.8 °F 72% 30.19 in 7.0 mi SE 5.8 mph - N/A   Overcast
7:55 PM 61.7 °F 54.0 °F 76% 30.18 in 10.0 mi SE 4.6 mph - N/A   Overcast
7:56 PM 61.5 °F 54.0 °F 76% 30.18 in 10.0 mi SE 4.6 mph - N/A   Overcast
8:18 PM 60.4 °F 53.8 °F 79% 30.18 in 10.0 mi SE 4.6 mph - N/A   Overcast
8:36 PM 60.8 °F 54.5 °F 80% 30.18 in 10.0 mi SE 4.6 mph - N/A   Overcast
8:56 PM 60.4 °F 54.3 °F 80% 30.18 in 10.0 mi SE 5.8 mph - N/A   Overcast
9:15 PM 61.0 °F 54.1 °F 78% 30.18 in 10.0 mi SE 4.6 mph - N/A   Overcast
9:16 PM 61.0 °F 54.1 °F 78% 30.18 in 10.0 mi SE 5.8 mph - N/A   Overcast
9:35 PM 60.3 °F 54.5 °F 81% 30.18 in 10.0 mi SE 4.6 mph - N/A   Overcast
9:36 PM 60.1 °F 54.5 °F 82% 30.18 in 10.0 mi SE 4.6 mph - N/A   Overcast
9:55 PM 59.0 °F 54.5 °F 85% 30.17 in 10.0 mi ESE 5.8 mph - N/A   Scattered Clouds
9:56 PM 58.8 °F 54.5 °F 86% 30.17 in 10.0 mi ESE 5.8 mph - N/A   Scattered Clouds
10:18 PM 57.7 °F 54.1 °F 88% 30.17 in 10.0 mi SE 4.6 mph - N/A   Clear
10:36 PM 56.8 °F 54.0 °F 90% 30.18 in 10.0 mi SE 3.5 mph - N/A   Scattered Clouds
10:57 PM 56.8 °F 54.0 °F 90% 30.18 in 10.0 mi Calm Calm - N/A   Mostly Cloudy
11:16 PM 54.9 °F 53.1 °F 94% 30.18 in 10.0 mi Calm Calm - N/A   Mostly Cloudy
11:35 PM 55.0 °F 54.0 °F 96% 30.18 in 10.0 mi Calm Calm - N/A   Overcast
11:36 PM 55.2 °F 54.0 °F 96% 30.18 in 10.0 mi Calm Calm - N/A   Overcast
11:55 PM 55.4 °F 54.1 °F 96% 30.18 in 10.0 mi Calm Calm - N/A   Overcast
11:59 PM 55.4 °F 54.3 °F 96% 30.18 in 10.0 mi Calm Calm - N/A   Overcast